Regional Weather Roundup
Issued by NWS

Home | Current Version | Previous Version | Text Only | Print | Product List | Glossary On
Versions: 1 2 3 4 5 6 7 8 9 10 11 12 13 14 15 16 17 18 19 20 21 22 23 24 25 26 27 28 29 30 31 32 33 34 35 36 37 38 39 40 41 42 43 44 45 46 47 48 49 50
000
ASUS44 KEWX 310211
RWRTX
SOUTH TEXAS REGIONAL WEATHER ROUNDUP
NATIONAL WEATHER SERVICE AUSTIN/SAN ANTONIO TX
900 PM CDT THU JUL 30 2015

NOTE: "FAIR" INDICATED FEW OR NO CLOUDS BELOW 12,000 FEET WITH NO
SIGNIFICANT WEATHER AND/OR OBSTRUCTIONS TO VISIBILITY.

* - THESE STATIONS ARE NOT NWS OR FAA STATIONS...AND ARE NOT SUBJECT
    TO NWS AND FAA QUALITY CONTROL.

TXZ171-172-183>190-310300-
TEXAS HILL COUNTRY AND EDWARDS PLATEAU

CITY           SKY/WX    TMP DP  RH WIND       PRES   REMARKS
JUNCTION       CLEAR     92  56  29 SE7       30.05R HX  90
*LLANO         CLEAR     91  57  31 SE3       30.05R HX  90
BURNET         CLEAR     91  60  35 SE3       30.06R HX  90
*HORSESHOE BAY CLEAR     90  58  34 S3        30.03R
*KERRVILLE     CLEAR     87  63  44 CALM      30.06R
*FREDERICKSBRG CLEAR     87  57  36 CALM      30.07R
*ROCKSPRINGS   PTCLDY    88  55  33 SE8       30.11R
*BOERNE STAGE  CLEAR     82  63  51 CALM      30.06R
*CASTROVILLE     N/A     91  60  35 SE5       30.02R HX  90
HONDO          CLEAR     88  63  43 SE6       30.03R
*UVALDE        CLEAR     85  61  43 E6        30.02R
DEL RIO        CLEAR     93  54  26 SE10      29.98R HX  91
LAUGHLIN AFB   CLEAR     91  58  31 SE9       30.00R HX  90
CARRIZO SPRGS  CLEAR     90  63  40 E3        29.96R HX  90
$$

TXZ173-191>194-202-209-217>225-228-310300-
CENTRAL AND SOUTH CENTRAL TEXAS

CITY           SKY/WX    TMP DP  RH WIND       PRES   REMARKS
GEORGETOWN     CLEAR     93  63  36 CALM      30.00R HX  94
AUSTIN/BERGSTM MOCLDY    86  67  52 SE5       29.99R
AUSTIN/MABRY   PTCLDY    92  63  38 SE3       30.00R HX  93
*AUSTIN/EXEC   PTCLDY    91  64  40 CALM      30.00R HX  93
*LAGO VISTA    PTCLDY    90  61  38 SE3       30.04R
SAN MARCOS     CLEAR     90  64  43 SE3       30.00R HX  91
NEW BRAUNFELS  CLEAR     87  69  54 S6        29.98R HX  91
RANDOLPH AFB   CLEAR     85  68  55 SE5       30.00R
PT SAN ANTONIO CLEAR     91  65  42 SE6       29.99R HX  93
SAN ANTONIO    MOCLDY    90  65  43 SE9       30.01R HX  92
STINSON FIELD  CLEAR     89  68  49 CALM      29.98R HX  93
*PLEASANTON    PTCLDY    90  64  42 E3        29.98R HX  91
*LA GRANGE     MOCLDY    90  75  62 CALM      29.97R HX 100
*GIDDINGS      MOCLDY    87  68  53 CALM      30.03R HX  90
*GONZALES      MOCLDY    91  69  48 CALM      29.98R HX  96
$$

TXZ163>164-176>182-195>201-210>213-226-227-235-310300-
SOUTHEAST TEXAS

CITY           SKY/WX    TMP DP  RH WIND       PRES   REMARKS
COLLEGE STN    MOCLDY    86  73  65 S3        30.00R HX  93
*BRYAN         MOCLDY    88  71  56 SE5       30.00R HX  93
*CALDWELL      MOCLDY    88  70  55 CALM      30.02R HX  92
*CROCKETT      MOCLDY    90  75  62 E6        30.04R HX 100
*BRENHAM       MOCLDY    91  71  52 NW6       30.01R HX  96
HUNTSVILLE     CLOUDY    88  71  57 S5        30.00F HX  94
CONROE         CLOUDY    79  75  87 SE3       30.01R
HOUSTON BUSH   CLOUDY    83  78  85 CALM      30.00R HX  93
HOUSTON HOBBY  MOCLDY    90  75  61 E5        30.00R HX 100
*HOUSTON SW AP MOCLDY    87  76  69 CALM      30.00R HX  98
PEARLAND       MOCLDY    91  76  61 E7        30.01R HX 103
HOUSTON HOOKS  MOCLDY    85  74  69 CALM      30.01R HX  92
ELLINGTON FLD  MOCLDY    90  77  66 NE6       30.01R HX 102
SUGAR LAND     MOCLDY    88  70  55 N7        29.99R HX  93
*HOUSTON EXEC  MOCLDY    81  73  78 NW3       30.01S
*CLEVELAND MUN MOCLDY    81  77  90 CALM      30.02R
*WHARTON       PTCLDY    88  74  62 S7        29.99R HX  96
*COLUMBUS      NOT AVBL
*EAGLE LAKE    MOCLDY    88  72  58 E12       29.99R HX  94
$$

TXZ214>216-236>238-310300-
THE UPPER TEXAS COAST

CITY           SKY/WX    TMP DP  RH WIND       PRES   REMARKS
*ORANGE        CLOUDY    82  72  72 CALM      30.04R
PORT ARTHUR    CLOUDY    84  76  76 E15G23    30.02R HX  93
GALVESTON      MOCLDY    87  80  79 SW6       30.01R HX 103
ANGLETON       PTCLDY    86  77  74 S6        30.00R HX  97
*BAY CITY      PTCLDY    85  78  79 CALM      29.99R HX  96
PALACIOS       PTCLDY    88  75  65 S8        29.99R HX  97
$$

TXZ229>234-239>247-310300-
TEXAS COASTAL BEND AND RIO GRANDE PLAINS

CITY           SKY/WX    TMP DP  RH WIND       PRES   REMARKS
VICTORIA       PTCLDY    81  77  88 S5        29.99R
*BEEVILLE      PTCLDY    86  70  58 S6        29.99R HX  90
ROCKPORT       PTCLDY    85  75  72 VRB7      29.98R HX  93
*PORT ARANSAS  PTCLDY    83  77  81 S8        29.99R HX  92
*PORT LAVACA   PTCLDY    84  73  70 S7        29.99R HX  91
*INGLESIDE     PTCLDY    84  75  73 S6        29.99R HX  92
CORPUS CHRISTI MOCLDY    86  72  62 SE10      29.99R HX  92
CORPUS NAS     MOCLDY    82  73  74 S9        29.99R
*ROBSTOWN      PTCLDY    86  71  60 SE8       30.00R HX  92
ALICE          CLEAR     84  67  56 SE8       29.99R
KINGSVILLE NAS MOCLDY    83  77  82 SE7       29.99R HX  92
COTULLA        PTCLDY    94  63  35 E7        29.98R HX  95
*FAITH RANCH     N/A     93  61  33 E9G16     29.98R HX  93
LAREDO         CLEAR     94  61  33 E9        29.98R HX  94
$$

TXZ248>255-310300-
DEEP SOUTH TEXAS

CITY           SKY/WX    TMP DP  RH WIND       PRES   REMARKS
BROWNSVILLE    CLEAR     82  75  79 SE8       29.99S
PORT ISABEL    CLEAR     82  75  79 SE8       29.99R
*SOUTH PADRE   CLEAR     82  79  89 SE7       30.00R HX  93
HARLINGEN      PTCLDY    84  74  71 SE9       29.98R HX  91
*HEBBRONVILLE    N/A     89  63  41 E9        30.01R
MCALLEN        CLEAR     91  71  51 SE13      29.98R HX  97
*WESLACO       PTCLDY    88  70  56 SE7       29.98R HX  93
FALFURRIAS     MOCLDY    85  71  62 SE5       29.98S HX  90
EDINBURG       CLEAR     88  73  59 E12       29.99R HX  96
*ZAPATA        CLEAR     94  56  28 SE6       29.95R HX  92
$$

TXZ213>215-236>238-242>244-246-247-251-254-255-310300-
CMAN STATIONS

STATION/POSITION TIME  TEMP    WIND        PRES    WAVE
                       AIR SEA DIR/SP/G            HT/PER
                 (UTC) (F)     (DEG/KT/KT) (MB)    (FT/S)
$$

GMZ080-GMZ150>470-310300-
OFFSHORE BUOY REPORTS

STATION/POSITION TIME  TEMP    WIND        PRES    WAVE
                       AIR SEA DIR/SP/G            HT/PER
                 (UTC) (F)     (DEG/KT/KT) (MB)    (FT/S)
$$


USA.gov is the U.S. government's official web portal to all federal, state and local government web resources and services.